Theta_e
309 306 307 306 306 306 307 307 307 308 312 314 313 312 308 304 301 300 301 302 303 305 306 306 304 305 306 303 303 305 307 310 310 310 307 306 308 304 300 298 295 294 294
302 303 303 304 304 304 303 305 306 307 308 313 313 310 305 302 300 299 299 300 301 301 301 301 301 300 300 299 299 300 302 307 306 305 308 301 301 303 299 295 292 289 289
301 300 301 301 301 301 301 302 304 306 308 310 309 307 305 302 300 298 297 298 298 299 299 299 298 298 297 296 296 296 297 298 301 302 303 303 301 299 300 295 292 289 287
301 301 300 299 300 298 299 300 303 304 307 310 308 307 305 302 299 296 296 296 296 296 297 296 296 295 295 294 294 295 294 296 293 297 298 300 303 301 293 294 292 290 287
297 300 300 299 297 297 296 297 299 301 304 307 309 304 301 298 297 296 294 293 293 293 294 294 293 293 293 292 292 291 292 292 291 290 291 293 294 294 296 291 288 289 288
296 296 296 296 295 294 295 295 297 298 301 303 304 300 298 296 295 294 292 291 290 290 291 292 291 292 291 291 290 290 289 289 289 288 288 287 287 288 289 290 290 288 288
294 292 293 292 292 293 293 294 295 296 297 297 299 299 298 296 295 293 291 290 289 288 288 290 289 289 290 290 290 288 287 286 285 285 285 285 285 286 287 288 287 288 288
294 292 292 292 292 293 293 293 293 293 293 293 292 293 293 291 290 290 289 288 288 288 289 288 288 288 289 289 288 287 286 285 284 283 283 283 283 284 284 285 284 283 285
293 293 293 292 291 292 292 291 290 290 290 290 289 289 289 289 288 288 288 287 287 288 287 287 287 287 287 287 286 285 284 284 283 283 282 282 282 283 283 282 282 283 282
293 293 292 292 292 292 290 289 289 288 288 287 287 287 287 287 287 287 286 286 286 286 286 286 286 286 286 286 285 284 283 282 282 282 281 281 282 281 281 281 280 280 280
292 292 292 292 292 291 289 288 287 287 287 287 287 286 286 287 287 286 286 285 285 285 285 285 285 285 284 284 283 283 282 281 281 281 280 280 280 279 279 280 279 278 278
293 293 292 291 290 290 289 287 287 287 287 287 287 286 286 286 285 285 285 285 284 284 284 284 284 284 283 282 281 281 281 280 280 280 280 279 281 278 278 278 278 277 277
292 292 291 290 290 289 289 288 287 287 287 287 286 285 285 284 284 284 284 284 283 283 283 283 282 282 282 281 281 281 280 280 279 279 278 277 278 277 276 277 276 277 277
293 291 291 290 290 290 290 289 288 288 287 286 285 284 283 284 283 284 283 283 282 282 281 281 282 281 281 281 281 280 280 279 279 279 277 277 276 276 276 275 276 277 276
293 293 293 292 292 291 291 290 289 289 287 285 284 283 283 283 283 282 282 281 281 281 281 280 280 281 281 282 280 280 278 277 276 277 277 277 278 280 278 275 274 275 274
295 294 294 294 293 293 292 292 290 288 287 285 284 284 282 282 281 281 281 281 280 279 279 279 279 279 281 284 284 281 278 277 276 275 276 276 277 278 279 278 278 276 272
295 295 295 295 295 294 293 292 291 288 286 284 283 282 282 281 281 281 280 280 279 279 279 279 279 278 279 284 284 282 278 277 276 276 275 275 276 275 274 274 274 274 275
295 296 296 295 295 293 293 292 289 286 284 283 283 282 281 281 280 280 280 279 279 279 278 278 279 278 279 284 284 281 277 276 276 276 276 275 274 274 273 271 270 269 269
296 297 297 295 293 292 291 289 286 285 284 284 283 282 281 280 280 279 279 278 278 278 279 279 278 278 279 284 283 279 276 275 275 276 276 275 274 275 274 271 269 267 267
295 294 292 291 291 291 288 287 285 284 284 283 284 282 281 280 279 279 278 277 278 279 279 279 278 278 278 283 282 279 276 274 274 274 275 276 274 275 274 270 268 263 264
292 291 289 292 290 285 285 285 283 284 285 280 279 279 279 279 278 277 276 277 277 278 276 276 276 276 277 279 283 280 276 274 273 273 274 275 276 274 273 271 267 264 265
288 287 288 285 281 283 285 284 283 283 278 278 278 277 276 278 278 276 274 275 276 275 273 273 272 276 277 280 283 282 278 277 273 273 273 273 276 275 273 269 270 269 265
284 279 280 279 277 276 278 281 279 276 275 275 275 274 274 276 277 276 275 274 275 275 274 274 275 274 275 275 282 282 281 279 274 274 274 275 276 275 272 270 268 263 260
279 277 276 276 275 273 275 273 274 274 275 274 272 272 274 273 274 277 277 276 275 275 274 275 274 273 273 274 277 278 279 279 276 275 273 273 269 269 266 264 264 260 257
275 273 273 273 273 272 273 272 274 274 274 272 272 272 273 274 274 276 276 277 277 277 275 275 275 272 273 275 277 276 271 268 271 262 258 259 258 257 256 255 255 255 254
273 273 271 271 271 270 271 271 271 272 272 272 271 272 274 273 275 275 275 281 281 282 283 281 278 276 278 279 280 280 278 277 275 255 253 253 254 257 256 254 253 253 254
Wind_Speed
7 7 9 9 10 8 8 7 7 4 3 2 4 4 4 4 4 4 6 6 5 6 6 4 5 4 5 4 5 3 3 4 3 4 6 7 6 7 6 7 7 9 7
6 6 7 6 6 7 7 7 6 4 2 2 3 4 4 3 4 3 5 6 6 6 6 5 4 5 4 5 5 5 2 2 4 2 1 4 2 4 5 5 7 6 4
11 7 8 7 8 8 7 7 6 4 2 6 7 7 6 4 3 3 4 4 6 6 5 5 5 5 4 4 4 4 5 1 2 5 1 2 2 3 3 5 5 6 4
6 5 7 8 8 6 7 7 6 4 2 3 5 6 4 4 2 3 3 4 5 6 6 6 5 5 4 5 4 4 3 2 2 3 3 1 1 3 3 3 4 5 6
6 10 8 7 7 7 7 6 5 3 2 3 6 5 6 5 4 4 6 5 5 6 6 6 5 5 4 4 6 5 6 4 3 3 3 3 3 3 2 4 3 4 4
6 7 7 9 6 6 6 6 6 3 3 5 7 8 10 8 6 5 4 3 3 4 5 5 5 5 5 5 4 5 7 5 5 4 5 3 2 2 2 2 3 5 4
8 7 9 7 6 7 6 6 6 4 5 7 7 7 8 7 8 6 4 5 2 2 3 3 5 3 4 5 5 5 6 5 4 4 3 3 3 1 2 2 1 3 3
7 7 7 7 7 7 7 6 7 6 6 6 7 6 7 5 4 5 4 4 3 3 3 4 5 6 5 5 5 3 4 5 4 6 5 3 3 3 1 2 3 3 3
7 8 7 7 7 7 7 7 7 6 6 6 6 6 6 7 6 6 5 4 4 3 4 5 5 5 5 5 5 4 4 4 4 5 5 3 2 3 3 3 1 2 4
7 7 7 7 6 7 6 7 7 7 6 6 6 5 6 6 6 5 6 5 4 4 5 5 5 5 5 5 5 4 4 5 3 3 5 4 3 4 4 3 3 3 1
8 7 7 7 7 7 7 7 7 7 6 6 5 6 6 6 6 5 5 5 4 4 5 4 4 4 4 4 5 5 5 5 5 4 5 5 5 4 4 4 4 4 3
8 7 7 8 7 7 7 7 7 7 7 6 6 6 6 6 6 6 6 6 6 5 5 5 5 4 4 4 4 4 4 5 4 4 5 4 3 5 5 4 5 4 5
8 7 7 7 8 7 7 7 7 7 7 7 7 6 6 6 6 6 6 6 5 5 5 5 4 4 4 4 4 5 5 5 4 4 5 4 4 4 3 4 4 3 4
9 8 7 7 7 8 9 8 8 8 8 7 7 7 7 7 6 6 6 6 6 6 4 4 4 4 4 4 5 5 5 5 5 6 6 5 5 4 4 5 5 4 4
10 10 10 9 9 9 9 8 8 9 7 7 7 8 7 6 6 6 6 6 6 5 5 5 4 4 4 3 5 5 5 6 6 5 6 6 7 11 8 3 4 4 3
10 9 9 10 11 12 12 11 10 10 9 9 8 7 7 7 7 7 7 7 6 6 6 5 5 5 2 7 8 6 5 6 7 6 5 5 6 8 12 13 14 9 4
13 12 13 12 11 12 11 13 12 8 9 8 7 8 7 7 8 7 7 7 7 6 6 5 5 5 4 7 8 9 5 6 6 7 6 5 5 5 5 9 11 12 13
11 11 10 8 8 7 9 7 8 8 8 8 8 7 8 7 6 7 7 6 5 6 5 6 6 5 4 9 9 9 5 5 5 5 5 5 5 4 4 5 6 7 7
11 11 11 7 7 9 8 8 7 8 8 10 10 10 10 9 9 9 8 5 6 5 5 5 6 7 5 12 12 9 6 7 6 5 5 6 4 4 4 4 5 4 4
7 9 9 7 9 10 10 9 8 9 12 10 12 9 9 9 9 7 8 4 4 5 6 6 6 7 6 13 13 10 4 6 5 5 7 8 6 6 5 4 4 4 2
7 6 7 11 12 5 8 8 7 13 10 6 6 7 7 8 7 7 4 6 5 6 5 7 5 6 7 8 15 14 5 5 5 4 4 3 9 7 6 5 3 4 4
4 3 5 4 3 6 8 8 10 7 6 7 7 7 7 6 6 7 4 5 7 7 6 6 4 4 5 10 15 16 13 11 6 6 5 4 10 8 7 4 7 6 6
4 2 3 3 2 3 1 7 5 6 6 6 6 6 5 6 7 8 7 5 7 7 7 8 7 6 4 3 15 17 16 14 6 5 9 12 11 11 7 7 6 5 2
3 3 4 2 2 2 1 2 3 5 6 5 5 5 7 6 6 6 7 8 8 8 8 8 8 6 6 6 5 5 8 12 9 10 6 7 8 10 8 4 3 2 2
1 3 3 2 4 5 6 6 7 7 5 5 5 5 5 8 7 8 9 9 9 11 10 9 9 9 8 11 14 11 6 4 8 6 4 3 3 2 2 1 2 2 2
2 2 1 2 4 4 5 4 3 5 7 6 5 5 6 6 6 6 5 15 13 19 19 17 12 8 13 17 22 22 19 18 18 4 3 3 3 5 4 4 3 2 4
Wind_Direction
144 127 117 112 105 100 108 116 119 143 146 127 126 111 95 85 67 61 63 54 42 40 45 44 31 21 55 38 20 351 16 24 23 107 75 58 73 93 100 103 92 84 76
131 128 124 119 118 128 121 122 128 132 126 144 123 117 131 95 114 91 61 54 50 41 58 53 43 39 52 38 28 25 349 32 5 136 132 163 134 73 92 94 101 93 84
165 161 151 146 132 130 136 126 123 125 120 115 105 97 99 93 93 75 64 46 55 50 54 53 54 48 46 43 33 22 39 25 344 32 170 176 164 134 66 98 98 102 87
173 170 154 148 144 132 115 109 111 126 113 130 132 143 132 133 124 112 107 74 57 53 50 54 56 58 54 50 33 33 37 95 28 323 360 9 73 165 152 101 96 102 91
143 170 159 132 122 122 124 122 112 105 110 127 136 118 103 107 115 114 113 97 63 55 54 58 59 60 56 51 49 34 35 31 62 23 346 359 24 30 129 159 146 88 86
87 110 110 119 118 121 123 123 127 129 97 95 122 120 126 131 126 128 119 108 82 53 52 60 61 60 61 60 56 50 47 44 51 41 33 33 17 358 23 106 131 130 103
122 123 130 139 143 150 144 140 136 121 97 89 96 113 126 125 130 137 136 132 112 59 53 64 60 57 67 69 70 67 63 56 79 75 71 58 51 2 11 26 76 130 152
146 152 161 164 167 164 165 141 137 117 104 101 100 103 107 109 115 120 122 127 131 123 85 74 62 54 60 67 67 65 73 67 69 76 77 75 40 31 45 148 157 155 154
161 172 179 179 175 163 157 146 135 126 121 118 108 102 111 114 120 122 116 117 113 110 87 82 81 69 75 83 84 86 86 78 74 81 86 82 50 40 29 31 26 173 169
173 180 176 175 168 155 146 138 139 140 141 129 122 119 122 124 124 117 118 114 109 96 98 90 83 69 67 89 94 88 83 87 65 67 72 57 34 28 27 26 18 4 25
186 172 175 171 157 149 147 147 144 141 142 138 132 129 133 129 120 115 120 123 116 117 105 103 100 97 89 89 89 85 83 81 72 61 67 56 44 31 28 27 24 16 5
177 179 174 158 158 163 158 156 156 155 164 158 151 152 144 133 129 135 146 145 137 133 138 122 111 103 94 93 106 104 110 114 105 86 75 59 67 53 39 30 23 23 14
175 175 161 172 171 169 167 168 168 174 174 167 163 155 156 155 161 164 156 144 133 130 125 124 127 117 109 101 100 107 103 91 81 73 67 42 66 76 96 110 107 84 40
184 182 173 188 180 177 176 179 182 183 180 170 163 169 177 175 172 159 149 144 147 139 135 128 128 125 120 131 125 124 115 98 76 66 59 46 45 35 51 43 17 63 92
189 187 184 190 188 181 183 188 191 189 173 168 175 188 183 174 159 151 154 155 148 145 144 138 138 141 146 156 150 148 132 116 96 80 81 63 59 63 63 64 25 33 55
195 186 187 188 189 187 191 191 191 188 174 184 191 173 172 168 167 166 168 161 154 150 154 161 167 171 179 180 170 150 144 131 122 113 100 86 64 68 71 68 65 63 50
190 189 196 194 188 190 181 193 192 167 181 176 180 183 175 177 182 171 162 168 165 155 169 169 169 173 173 186 179 163 154 147 151 148 152 143 131 113 97 80 68 50 54
185 190 189 186 190 181 188 165 163 169 172 185 187 182 180 181 168 172 174 170 161 167 166 176 177 168 191 185 181 150 130 134 135 147 153 133 131 141 130 111 85 71 62
186 191 191 174 161 176 178 173 172 171 182 197 192 190 182 177 178 183 173 165 155 173 180 179 172 175 186 186 179 151 141 137 131 122 134 129 128 143 136 130 119 94 60
172 174 174 158 161 199 174 166 181 181 207 194 200 182 172 177 186 172 170 154 163 174 176 177 178 177 174 189 187 165 158 148 142 126 132 143 143 148 151 154 153 137 115
167 158 158 176 194 127 133 179 176 209 211 149 147 160 169 173 167 162 161 165 162 156 165 173 176 173 177 193 192 183 175 163 148 160 157 142 153 151 152 134 129 162 139
103 97 146 163 177 157 161 186 203 208 154 151 160 163 162 165 164 163 166 160 157 166 173 162 170 180 181 196 202 202 189 182 165 171 157 162 172 165 137 129 122 127 117
120 106 156 245 293 2 80 190 235 143 137 144 166 167 155 161 160 166 170 158 175 178 179 179 186 187 185 197 211 209 205 201 181 157 168 180 192 179 158 147 133 92 97
151 147 133 216 313 337 267 267 176 138 144 150 165 165 171 172 170 172 179 184 187 185 187 190 195 182 185 197 212 194 198 206 179 184 173 173 132 136 127 92 108 115 115
79 110 140 211 234 221 215 197 181 156 169 176 180 183 177 183 185 198 193 199 204 193 191 200 188 177 196 204 194 179 172 141 151 108 67 75 93 116 118 85 154 140 129
124 86 130 215 251 213 235 211 189 170 163 187 190 190 186 194 198 199 220 224 215 214 213 205 192 194 205 200 200 200 192 179 162 75 130 171 169 180 181 193 208 195 189